{"data":{"norad_id":66426,"intl_designator":"2025-259E","name":"STARLINK-35589","alt_names":[],"object_type":"PAYLOAD","status":"ACTIVE","operator":null,"country":"US","launch_date":"2025-11-11","launch_site_code":"AFETR","launch_vehicle":null,"mission":null,"orbit_class":"UNKNOWN","rcs_meters":null,"size_class":null,"mass_kg":null,"dimensions":null,"purposes":["comms"],"wikipedia_slug":null,"has_3d_model":false,"image_url":null,"decayed_at":null,"tle_current":{"epoch":"2026-09-20T00:49:55.685856Z","epoch_age_seconds":133645,"freshness":"FRESH","line1":"1 66426U 25259E   26263.03467229  .00008744  00000+0  32684-3 0  9997","line2":"2 66426  42.9998 256.8070 0000930 263.5567  96.5179 15.27583699 49219","mean_motion":15.27583699,"eccentricity":9.3e-5,"inclination_deg":42.9998,"raan_deg":256.807,"arg_perigee_deg":263.5567,"mean_anomaly_deg":96.5179,"bstar":0.00032684,"rev_number":4921,"period_min":94.26652044943,"perigee_km":482.39993064844,"apogee_km":483.67610920215,"semimajor_km":6861.1750199253,"source":"CELESTRAK","updated_at":"2026-09-21T09:00:35.906618Z"}}}